Volver al catálogo

CZ-3B R/B

ActivoHEO
NORAD 39158·ROCKET BODY·🇨🇳 China

Lanzado May 1, 2013 desde Xichang Satellite Launch Center

Loading…

Próximos Pases (próximas 24 horas)

TLE

ActualizadoSource: Space-Track

Época: Sep 11, 2026, 14:49 UTC

1 39158U 13020B   26254.61742994  .00121821  93989-6  16379-2 0  9990
2 39158  26.4894 358.3123 5937148 359.7728   0.0189  4.23899490130318

Sigue CZ-3B R/B en tiempo real con AllMySat

Download on the App Store